Tracking 30685 objects as of 17-Jun-2025
HD Live streaming from Space Station
objects crossing your sky now

STARLINK-34304

Track STARLINK-34304 now!
10-day predictions
STARLINK-34304 is classified as:


NORAD ID: 64224
Int'l Code: 2025-117X
Perigee: 352.5 km
Apogee: 354.0 km
Inclination: 53.2 °
Period: 91.5 minutes
Semi major axis: 6724 km
RCS: Unknown
Launch date: June 5, 2025
Source: United States (US)
Launch site: AIR FORCE WESTERN TEST RANGE (AFWTR)
Your satellite tracking list
Your tracking list is empty




NASA's NSSDC Master Catalog

Two Line Element Set (TLE):
1 64224U 25117X   25168.16667824 -.01199390  00000-0 -91204-2 0  9998
2 64224  53.1588 199.0848 0001172  96.4231   7.2678 15.74481492  2754
Source of the keplerian elements: AFSPC